sat.trackr.live / text

‹ back to catalog

STARLINK-35845

NORAD 66366 · 2025-254U

PAYLOAD ACTIVE UNKNOWN

§ Identity

Operator
Country
US
Launch date
2025-11-06
Launch site
AFWTR
Launch vehicle
Mass (kg)
RCS (m²)

Purposes: comms

External: N2YO · Heavens-Above · Gunter

§ Orbital elements

Epoch: 2026-05-25T05:29:47.948352Z

Period
94.09 min
Inclination
53.1586°
Eccentricity
0.0003240
Mean motion
15.30376800 rev/d
Perigee alt
472.5 km
Apogee alt
476.9 km
Semi-major
6,852.8 km
B*
2.8789e-3
RAAN
236.9737°
Arg perigee
312.0719°
Mean anomaly
48.0006°
Rev number
3,069

§ Raw data

STARLINK-358451 66366U 25254U   26145.22902718  .00086382  00000+0  28789-2 0  99962 66366  53.1586 236.9737 0003240 312.0719  48.0006 15.30376800 30695

JSON: /api/v1/satellites/66366 · /tle

For live sub-satellite position, see the globe view (requires WebGL).

§ Visibility from observer

Set your observer location to see the next 7 days of passes ≥ 10°. The values pass through the URL so the page stays shareable.

No JS? Fill the form by hand. The geolocation button needs JavaScript.